RH
69 55 33 29 27 23 22 18 15 12 13 14 13 14 16 24 40 91 100 100 100 87 97 95 94 100 100 98 86 66 87 100 76 93 100 95 88 69 86 100 100 100 100 100
44 35 28 32 26 20 15 13 10 11 14 15 19 23 41 37 75 100 100 100 100 100 96 97 98 90 100 97 91 100 92 100 100 100 100 100 93 98 100 100 100 100 100 100
40 35 36 23 16 14 13 11 12 15 20 25 28 44 60 97 100 100 100 100 100 100 97 99 100 100 91 100 89 100 100 100 100 100 100 100 100 100 100 100 100 100 100 100
39 31 19 15 14 12 13 14 20 25 35 37 72 91 82 100 100 100 100 100 98 81 90 100 100 100 99 96 100 88 100 100 100 100 100 100 100 100 100 100 100 100 100 100
25 18 16 14 13 15 16 21 31 41 50 65 94 100 100 100 100 100 100 100 99 92 92 100 100 100 100 98 100 97 100 100 100 100 100 100 100 100 100 100 100 100 100 100
18 17 16 15 16 20 28 32 37 43 55 86 100 100 100 100 99 100 100 100 98 86 86 100 100 100 100 99 92 100 100 100 100 100 100 100 100 100 100 100 100 100 100 100
19 19 19 17 24 27 36 41 57 55 64 90 95 100 100 100 99 99 100 100 100 98 85 91 100 100 100 100 100 100 100 100 100 100 100 100 100 100 100 100 100 100 100 100
20 21 22 26 29 33 47 50 64 70 82 92 97 100 100 100 99 100 100 100 99 94 96 80 94 100 100 100 100 100 100 100 100 100 100 100 100 100 100 100 100 89 96 84
22 21 26 34 42 43 51 53 65 74 82 100 100 100 100 100 100 100 100 99 100 100 95 91 88 96 100 100 100 100 100 100 100 100 100 100 100 100 100 100 100 100 75 79
26 27 37 48 50 55 59 74 83 89 84 90 99 100 99 100 100 100 100 100 99 100 100 97 89 89 95 100 100 100 100 100 100 100 100 100 100 100 100 100 100 100 100 100
31 33 42 49 70 82 70 66 85 92 94 88 88 89 88 82 88 94 99 100 100 100 100 100 99 98 81 89 99 100 99 100 100 100 100 100 100 100 97 94 100 100 100 100
51 41 45 51 63 96 98 100 99 97 99 89 81 72 69 68 69 74 81 82 88 95 98 100 100 100 100 100 88 89 100 96 94 100 100 100 100 100 100 100 100 98 95 100
43 46 53 51 76 85 86 99 97 98 93 93 93 86 79 74 81 91 89 87 88 81 77 82 83 86 84 87 95 100 86 97 100 97 88 92 100 100 100 100 100 100 100 100
37 47 56 71 73 81 83 86 88 90 90 89 90 85 77 64 60 55 49 46 46 48 51 50 45 47 51 54 56 62 73 73 83 96 100 92 95 94 88 97 100 98 100 100
26 37 48 60 66 83 89 89 92 88 90 87 82 78 71 61 46 36 28 25 26 28 29 27 28 30 31 32 36 41 44 48 48 50 66 66 73 76 80 71 65 74 82 72
23 26 33 44 53 63 75 85 93 92 86 82 73 67 65 55 46 38 35 32 29 27 21 19 18 17 17 18 21 25 27 29 34 39 41 41 40 45 52 58 65 61 54 62
21 25 25 27 39 56 66 76 77 61 62 64 59 59 56 48 44 40 35 30 27 22 20 19 19 19 18 17 16 16 17 19 22 26 27 28 30 31 33 35 36 37 37 36
18 20 23 31 48 56 60 67 56 44 51 50 54 46 43 33 28 25 24 25 24 23 23 23 23 24 25 26 26 26 26 25 24 22 20 19 18 17 16 16 15 15 14 12
20 22 21 24 34 39 52 59 49 58 62 52 34 29 28 26 25 27 30 31 30 30 33 35 37 38 37 38 39 40 39 36 33 30 26 24 22 20 18 15 13 11 9 8
21 21 21 28 39 45 55 57 59 56 51 39 36 29 29 29 29 32 34 37 38 40 41 45 52 58 62 64 63 58 53 46 39 34 29 24 20 16 12 9 7 6 6 5
18 20 22 26 35 46 48 48 45 42 41 33 31 31 33 32 35 40 44 45 46 53 60 68 78 76 72 69 64 58 52 44 37 30 26 20 14 8 5 4 4 3 3 3
15 15 16 19 24 30 34 38 39 34 30 32 33 34 35 38 43 47 51 56 65 73 80 82 79 74 72 68 62 57 47 37 31 27 19 11 6 4 3 3 3 2 2 2
17 17 18 20 23 28 31 31 31 30 32 33 34 37 41 44 49 53 63 75 79 84 84 82 81 79 74 70 64 51 40 34 27 17 9 6 4 4 3 3 2 2 2 2
18 18 19 20 23 26 28 29 29 30 32 35 39 44 46 46 56 71 79 83 87 86 84 82 82 83 78 69 56 45 35 24 16 9 6 4 4 3 2 2 2 2 2 2
22 22 23 24 25 28 29 29 30 34 37 42 46 48 51 67 80 84 85 87 86 86 87 88 88 80 71 58 46 33 22 14 8 5 4 3 3 2 2 2 2 2 2 2
23 24 24 26 27 27 27 30 34 40 41 42 45 59 74 82 85 88 88 87 86 90 88 86 78 67 57 43 31 21 13 8 5 4 3 3 3 2 2 2 2 2 2 1
25 25 26 27 28 29 31 35 39 39 39 44 64 74 81 86 90 90 89 89 91 90 83 76 65 57 44 32 21 13 7 5 4 3 3 2 2 2 2 2 2 2 1 1
Wind_Speed
44 46 45 40 35 31 32 31 30 26 26 25 22 18 17 18 18 20 23 30 30 30 29 22 20 18 19 11 14 19 26 28 32 33 34 37 36 37 38 41 48 47 49 46
43 43 36 35 34 32 29 29 25 18 18 18 16 17 21 18 23 28 36 34 37 34 31 29 25 27 19 17 21 21 30 31 34 37 37 39 41 39 41 41 48 46 44 45
40 36 34 33 31 29 25 22 17 16 18 18 17 20 24 24 31 38 37 31 34 33 30 31 30 31 25 22 30 28 36 41 40 41 36 37 42 42 43 43 46 47 49 52
32 31 32 29 27 22 19 16 16 16 19 19 23 23 24 35 39 43 39 35 37 33 27 26 30 30 27 23 33 38 39 39 46 49 46 42 39 38 41 44 52 54 52 51
26 27 29 25 21 18 18 16 18 20 22 24 26 28 28 40 42 43 39 38 37 30 29 27 30 28 25 26 33 37 37 41 44 47 48 40 41 38 41 41 44 49 53 59
24 22 25 21 19 20 20 20 21 22 25 28 30 32 31 38 37 44 42 39 38 36 28 30 27 25 27 26 33 42 38 43 48 49 51 47 47 48 46 46 49 51 59 62
22 22 22 21 21 22 22 22 24 22 23 29 32 39 43 41 42 39 45 44 41 40 31 33 31 27 32 31 30 33 42 49 46 42 46 43 46 53 56 58 61 65 66 66
21 22 24 24 23 23 25 23 24 25 25 26 29 36 46 49 44 41 37 46 46 44 40 33 37 37 34 39 37 37 45 47 50 52 53 50 55 55 56 58 66 66 69 71
23 24 24 25 26 26 25 24 23 25 23 26 30 34 38 50 53 51 45 44 46 47 43 42 41 42 40 42 43 43 46 51 52 56 60 58 60 60 62 67 69 72 73 73
25 26 27 28 24 24 26 25 25 26 27 28 31 32 36 40 52 55 53 54 51 49 51 48 47 42 49 47 52 52 52 54 58 60 61 64 66 68 68 74 77 78 82 82
29 28 29 31 29 27 25 26 28 30 32 31 30 33 34 35 37 42 48 46 54 59 57 60 57 54 46 51 55 57 60 62 62 65 67 69 71 74 75 78 80 80 82 84
32 30 29 30 31 28 24 25 31 35 35 35 32 29 31 33 33 35 39 43 46 51 51 50 58 65 64 59 55 60 65 69 70 72 75 76 78 82 82 84 86 89 90 92
35 34 33 32 30 28 27 27 27 30 30 29 33 35 35 34 35 39 45 50 53 54 57 60 60 59 59 63 68 69 69 74 75 77 82 85 87 88 89 89 91 94 97 99
35 37 36 35 33 32 31 31 30 29 30 33 36 37 36 38 40 44 49 51 51 52 55 57 58 59 62 64 67 70 72 74 80 85 86 87 89 94 97 98 101 104 105 106
32 37 37 36 35 34 34 33 33 33 33 35 36 37 38 40 42 43 44 43 46 49 51 53 56 58 59 61 64 68 72 74 78 81 88 92 96 99 102 105 107 110 113 116
30 34 37 37 34 33 34 33 33 35 37 38 39 39 41 42 42 40 39 40 40 41 42 45 47 50 52 53 55 59 62 67 73 78 81 84 88 95 101 109 113 114 117 120
29 31 32 31 28 28 29 29 31 36 34 37 38 37 39 40 38 35 35 36 35 36 36 37 37 39 40 42 45 49 52 56 60 65 71 75 79 85 89 94 100 105 111 115
27 27 26 26 27 30 27 27 31 28 29 31 32 33 31 29 30 29 27 28 28 29 30 31 33 34 35 37 40 43 46 50 54 59 64 68 72 77 81 85 90 94 97 100
26 27 27 28 28 27 27 30 29 26 27 29 27 25 24 23 23 23 22 24 25 26 27 28 30 32 34 37 40 44 48 52 55 60 64 68 72 76 80 84 88 90 91 91
26 27 25 25 27 28 29 31 29 30 30 28 25 23 22 22 22 21 21 23 25 26 27 29 31 33 37 41 45 49 53 57 60 63 66 69 72 76 80 83 84 84 84 85
26 28 28 28 28 29 30 30 30 28 27 25 24 23 23 23 22 21 22 24 25 27 28 31 34 39 43 47 50 54 57 61 63 66 68 71 74 76 74 73 73 73 73 73
24 26 29 29 29 29 28 28 28 27 25 24 23 23 23 22 22 22 23 25 26 28 31 35 40 44 48 52 55 60 63 64 66 69 73 75 75 74 72 70 69 67 67 67
22 23 24 24 25 26 27 27 26 24 23 23 22 23 23 23 22 23 24 26 28 32 37 41 46 50 54 58 63 66 67 69 71 73 75 74 72 70 69 67 66 64 63 62
21 22 24 24 23 24 24 24 23 22 22 22 22 23 23 23 23 24 26 29 33 37 42 47 52 56 60 65 68 70 70 71 73 74 73 71 70 68 65 63 62 61 59 58
20 21 22 22 22 22 23 23 22 22 23 23 23 23 22 23 24 28 30 34 38 43 48 53 57 61 65 68 70 70 70 71 73 72 70 68 67 65 62 60 59 59 58 57
20 19 20 20 21 22 22 21 21 23 23 22 22 22 22 24 27 30 34 38 43 48 53 58 63 65 68 70 70 70 71 71 70 68 66 65 62 60 58 57 56 56 56 55
19 20 20 21 22 22 22 22 23 23 22 22 23 23 24 27 30 34 39 43 49 54 58 63 65 68 70 71 70 70 70 68 66 65 63 61 59 57 56 55 55 54 53 52
Wind_Direction
272 275 280 287 282 277 272 272 269 267 262 258 254 243 235 216 189 189 193 191 193 197 195 194 172 164 185 220 199 183 180 186 184 169 175 182 181 185 189 194 202 203 209 213
280 282 285 283 278 274 273 268 266 255 244 234 227 214 202 197 185 186 189 193 191 195 203 202 191 190 185 183 183 171 174 173 175 171 172 177 184 189 193 198 202 206 212 215
281 282 278 272 272 270 266 258 245 222 219 211 206 199 196 185 186 181 189 196 203 202 208 204 205 196 193 182 195 179 176 167 168 165 161 182 182 186 194 199 200 207 220 226
276 272 269 269 263 259 249 237 224 205 199 191 190 196 193 183 185 194 200 202 216 221 212 203 195 200 207 198 193 177 178 176 179 173 176 180 184 193 199 206 211 214 221 225
267 269 265 255 249 241 231 215 210 199 192 186 192 198 200 193 200 204 209 211 221 222 216 202 204 205 206 202 194 181 184 192 181 181 176 180 197 194 209 218 224 228 230 231
268 258 255 244 235 223 215 208 201 199 192 189 193 202 209 211 212 214 215 219 220 222 215 211 207 214 207 210 201 197 189 191 189 187 186 195 194 195 204 214 216 223 231 232
261 250 242 233 219 215 206 205 201 199 194 196 199 199 211 220 223 222 223 225 222 229 222 209 202 200 214 208 214 209 201 197 203 202 200 205 214 212 211 213 216 222 227 228
249 239 227 225 220 216 213 207 205 206 205 207 207 208 211 222 228 234 233 230 237 242 240 226 213 209 204 213 210 212 208 205 209 207 213 211 215 223 221 225 232 232 234 234
236 228 220 216 219 215 216 214 212 215 211 216 218 220 217 221 223 229 236 240 240 244 249 240 230 220 214 210 213 211 217 213 215 216 218 221 224 224 228 232 234 238 239 241
230 221 214 212 212 220 221 223 224 225 227 225 227 231 232 228 228 231 238 241 243 250 247 251 243 234 223 219 217 218 217 220 220 220 221 225 229 229 231 232 236 243 248 250
227 217 215 211 209 217 221 227 233 236 241 246 242 239 238 235 232 233 239 245 246 248 250 250 251 251 246 233 224 222 224 222 223 224 226 227 229 233 236 236 237 240 242 247
220 217 216 212 212 211 218 232 237 240 246 251 254 256 246 247 247 247 247 245 245 244 245 248 250 250 247 249 249 233 227 228 228 228 229 230 231 233 236 239 241 242 243 245
213 217 215 212 209 214 211 223 233 241 246 253 259 263 265 260 255 253 249 243 240 239 240 241 243 244 245 246 245 245 240 237 232 231 235 234 236 237 237 238 240 243 245 247
210 212 213 212 212 211 210 213 221 228 235 243 248 250 251 249 247 244 241 241 245 247 249 250 248 245 243 241 240 241 240 239 235 234 236 235 237 239 240 242 244 245 246 247
212 210 213 217 217 216 217 219 221 227 234 239 244 248 250 252 254 256 256 256 256 256 259 259 259 257 255 255 254 251 248 247 245 243 241 244 243 243 244 245 246 246 247 249
219 216 215 219 221 223 226 230 235 237 239 244 248 252 255 260 263 267 269 267 266 264 261 260 260 260 260 258 256 255 256 255 255 254 254 254 252 250 250 250 249 250 251 251
223 223 223 220 219 222 227 234 242 244 244 247 252 255 260 265 269 266 263 262 262 263 264 265 266 266 266 265 264 263 263 263 262 261 260 260 260 259 258 258 257 256 256 257
228 229 227 220 219 228 228 244 252 249 247 250 259 259 258 257 260 261 260 262 264 266 267 269 271 275 277 278 278 276 274 272 270 269 267 266 266 264 264 263 262 262 262 262
228 230 228 225 229 235 241 250 254 257 262 261 260 261 261 259 260 264 267 271 273 274 278 282 284 283 283 283 283 282 280 279 277 275 273 271 270 270 269 268 268 268 268 269
226 227 226 226 231 237 244 249 255 256 256 259 263 264 266 266 268 272 275 279 283 286 287 288 292 294 293 292 291 290 289 287 285 283 282 281 279 276 274 273 273 274 275 273
226 224 221 222 227 234 239 244 248 250 256 259 263 264 264 266 269 275 281 286 289 291 294 295 295 295 297 297 297 298 297 295 292 290 289 287 285 282 283 285 283 282 280 278
225 230 230 230 231 236 240 243 247 251 256 259 260 261 264 268 274 278 282 286 290 292 296 297 299 301 302 303 303 303 301 300 298 296 294 291 292 293 292 291 289 287 285 283
223 227 230 230 230 233 238 244 249 253 256 256 257 260 265 270 274 279 282 285 290 295 298 303 305 306 307 308 308 306 305 303 301 298 296 297 298 297 296 295 293 290 288 285
227 227 229 232 234 239 244 247 250 251 252 254 258 262 266 273 276 280 284 291 296 300 304 306 309 310 310 310 309 308 307 305 303 301 302 302 301 300 298 297 295 293 290 288
227 230 232 233 235 238 241 244 245 248 252 255 259 263 266 272 278 284 290 295 300 305 307 309 310 310 310 310 310 310 309 306 305 304 304 303 302 301 299 298 295 294 292 290
231 233 233 234 237 240 244 246 246 249 253 258 260 261 268 275 283 288 294 300 303 305 308 309 310 310 311 312 313 312 309 307 306 305 305 304 303 302 301 299 297 295 293 292
233 236 237 238 240 243 246 247 249 250 257 258 258 264 273 281 288 294 299 302 305 307 307 309 311 313 314 315 315 312 310 309 308 308 307 306 306 305 304 302 300 298 295 293